Regional Weather Roundup
Issued by NWS Newport/Morehead, NC

Current Version | Previous Version | Text Only | Print | Product List | Glossary On
Versions: 1 2 3 4 5 6 7 8 9 10 11 12 13 14 15 16 17 18 19 20 21 22 23 24 25 26 27 28 29 30 31 32 33 34 35 36 37 38 39 40 41 42 43 44 45 46 47 48 49 50
640 ASUS42 KMHX 120525 RWRMHX WEATHER ROUNDUP FOR EASTERN NORTH CAROLINA NATIONAL WEATHER SERVICE NEWPORT/MOREHEAD CITY NC 1200 AM EST FRI FEB 12 2016 NOTE: "FAIR" INDICATES FEW OR NO CLOUDS BELOW 12,000 FEET WITH NO SIGNIFICANT WEATHER AND/OR OBSTRUCTIONS TO VISIBILITY NCZ015>017-031-032-045>047-102-103-120600- NORTH COAST CITY SKY/WX TMP DP RH WIND PRES REMARKS EDENTON CLEAR 26 17 70 CALM 30.32S ELIZABETH CITY CLEAR 29 12 49 N14 30.31S WCI 18 KITTY HAWK CLEAR 30 5 34 CALM 30.29S MANTEO CLEAR 32 6 33 N6 30.31S $$ NCZ045>047-081-094-103-104-120600- CENTRAL COAST CITY SKY/WX TMP DP RH WIND PRES REMARKS FRISCO CLEAR 34 13 41 VRB3 30.31S SWANQUARTER N/A 25 N/A N/A N2 30.30S $$ NCZ095-097-098-100-101-120600- SOUTHERN COAST CITY SKY/WX TMP DP RH WIND PRES REMARKS BEAUFORT CLEAR 28 19 69 CALM 30.31F CEDAR ISLAND N/A 37 N/A N/A N7 30.36S JACKSONVILLE CLEAR 28 24 85 CALM 30.30S PINEY ISLAND CLEAR N/A N/A N/A N3 30.31S WILMINGTON CLEAR 30 27 88 CALM 30.28F $$ NCZ011>013-027>030-043-044-078>080-089-090>093-098-120600- COASTAL PLAIN CITY SKY/WX TMP DP RH WIND PRES REMARKS AHOSKIE CLEAR 26 8 46 N3 30.32S CLINTON CLEAR 30 23 73 CALM 30.29S ELIZABETHTOWN CLEAR 30 25 83 CALM 30.27S GOLDSBORO CLEAR 32 12 43 NE7 30.28F GREENVILLE CLEAR 27 16 63 CALM 30.32S HAVELOCK CLEAR 29 23 78 CALM 30.31F KENANSVILLE CLEAR 24 22 90 CALM 30.30S KINSTON CLEAR 27 20 77 CALM 30.32S NEW BERN CLEAR 25 19 78 CALM 30.31F RICHLANDS CLEAR 25 18 74 CALM 30.30S ROCKY MOUNT CLEAR 26 11 52 CALM 30.31F WASHINGTON CLEAR 26 16 63 CALM 30.33R WHITEVILLE CLEAR 30 26 86 CALM 30.26S $$ AMZ130-135-150-152-154-156-158-170-250-252-270-ANZ085-086-088-633-658-670-120600- MARINE OBSERVATIONS STATION/POSITION TIME TEMP WIND PRES WAVE SWELL AIR SEA DIR/SP/G HT/PER HT/PER (UTC) (F) (DEG/KT/KT) (MB) (FT/S) (FT/S) CHESAPEAKE LIGHT 0500 30 360/ 12/ 16 1027.2 64 E VA BEACH 0450 34 49 350/ 16/ 19 1025.4 5/ 7 2/ 9 DUCK 0500 33 330/ 12/ 14 1025.3 2 E DUCK 0411 43 N/A 2/ 6 OREGON INLET 0400 31 41 340/ 5/ 7 1026.3 13E OREGON INLT 0500 44 N/A 3/ 6 HATTERAS CG 0400 38 45 340/ 8/ 10 1026.1 DIAMOND BUOY 0450 40 62 350/ 8/ 14 1026.4 3/ 3 2/ 7 CAPE LOOKOUT NOT AVBL BEAUFORT LAB 0400 35 45 50/ 3/ 4 1025.4 30 SE NEW RVR IN 0508 46 58 1025.2 30 SE NEW RVR IN 0425 58 N/A 3/ 7 27 SE WRIGHTSVLE 0408 46 62 340/ 2/ 6 1024.0 5 SE WRIGHTSVLE 0408 45 50 60/ 4/ 6 1025.7 225 S CAPE HAT 0450 57 68 320/ 14/ 17 N/A 7/ 8 5/ 8 41 SE CHARLESTON 0450 56 69 60/ 8/ 10 1023.1 1/ 4 2/ 4 $$

USA.gov is the U.S. government's official web portal to all federal, state and local government web resources and services.